| time (UTC) | temp C | wind direction | speed KPH | gust KPH | rain 1hr cm | rain 24hr cm | rain mn cm | humidity % | barometer mb |
| 20260507155558 | 16 | 270 | 3.2 | 4.8 | 0.00 | 0.00 | 0.00 | 64 | 1015.7 |
| 20260507154817 | 16 | 248 | 6.4 | 9.7 | 0.00 | 0.00 | 0.00 | 63 | 1015.7 |
| 20260507153817 | 16 | 225 | 6.4 | 14.5 | 0.00 | 0.00 | 0.00 | 65 | 1015.8 |
| 20260507152817 | 15 | 293 | 6.4 | 14.5 | 0.00 | 0.00 | 0.00 | 67 | 1015.8 |
| 20260507151817 | 15 | 270 | 6.4 | 14.5 | 0.00 | 0.00 | 0.00 | 65 | 1016.0 |
| 20260507150817 | 15 | 293 | 4.8 | 11.3 | 0.00 | 0.00 | 0.00 | 68 | 1016.0 |
| 20260507145857 | 15 | 225 | 9.7 | 16.1 | 0.00 | 0.00 | 0.00 | 68 | 1016.1 |
| 20260507144817 | 15 | 225 | 11.3 | 25.7 | 0.00 | 0.00 | 0.00 | 66 | 1016.2 |
| 20260507143817 | 14 | 293 | 4.8 | 12.9 | 0.00 | 0.00 | 0.00 | 69 | 1016.2 |
| 20260507142817 | 14 | 293 | 4.8 | 9.7 | 0.00 | 0.00 | 0.00 | 70 | 1016.2 |
| 20260507141817 | 14 | 270 | 6.4 | 9.7 | 0.00 | 0.00 | 0.00 | 70 | 1016.2 |
| 20260507140817 | 13 | 270 | 4.8 | 9.7 | 0.00 | 0.00 | 0.00 | 70 | 1016.4 |
| 20260507135837 | 13 | 225 | 1.6 | 3.2 | 0.00 | 0.00 | 0.00 | 70 | 1016.4 |
| 20260507134815 | 13 | 270 | 1.6 | 4.8 | 0.00 | 0.00 | 0.00 | 72 | 1016.5 |
| 20260507133835 | 13 | 225 | 3.2 | 6.4 | 0.00 | 0.00 | 0.00 | 72 | 1016.4 |
| 20260507132815 | 12 | 203 | 1.6 | 4.8 | 0.00 | 0.00 | 0.00 | 73 | 1016.5 |
| 20260507131815 | 12 | 203 | 3.2 | 6.4 | 0.00 | 0.00 | 0.00 | 73 | 1016.7 |
| 20260507130815 | 11 | 0.0 | 6.4 | 0.00 | 0.00 | 0.00 | 75 | 1016.8 | |
| 20260507125835 | 11 | 0.0 | 1.6 | 0.00 | 0.00 | 0.00 | 78 | 1017.0 | |
| 20260507124815 | 10 | 0.0 | 1.6 | 0.00 | 0.00 | 0.00 | 79 | 1016.9 | |
| 20260507123835 | 10 | 180 | 1.6 | 1.6 | 0.00 | 0.00 | 0.00 | 79 | 1016.8 |
| 20260507122815 | 9 | 0.0 | 0.0 | 0.00 | 0.00 | 0.00 | 85 | 1016.8 | |
| 20260507121815 | 8 | 0.0 | 0.0 | 0.00 | 0.00 | 0.00 | 90 | 1016.8 | |
| 20260507120815 | 7 | 0.0 | 0.0 | 0.00 | 0.00 | 0.00 | 94 | 1016.6 | |
| 20260507115815 | 5 | 0.0 | 0.0 | 0.00 | 0.00 | 0.00 | 93 | 1016.5 | |
| 20260507114815 | 3 | 0.0 | 0.0 | 0.00 | 0.00 | 0.00 | 92 | 1016.4 | |
| 20260507113815 | 3 | 0.0 | 0.0 | 0.00 | 0.00 | 0.00 | 92 | 1016.2 | |
| 20260507112815 | 2 | 0.0 | 0.0 | 0.00 | 0.00 | 0.00 | 91 | 1016.1 | |
| 20260507111815 | 2 | 0.0 | 0.0 | 0.00 | 0.00 | 0.00 | 90 | 1016.1 | |
| 20260507110815 | 2 | 0.0 | 0.0 | 0.00 | 0.00 | 0.00 | 89 | 1016.1 | |
| 20260507105835 | 2 | 0.0 | 0.0 | 0.00 | 0.00 | 0.00 | 90 | 1016.0 | |
| 20260507104816 | 2 | 0.0 | 0.0 | 0.00 | 0.00 | 0.00 | 89 | 1016.1 | |
| 20260507103815 | 2 | 0.0 | 0.0 | 0.00 | 0.00 | 0.00 | 90 | 1016.0 | |
| 20260507102815 | 2 | 0.0 | 0.0 | 0.00 | 0.00 | 0.00 | 90 | 1016.0 | |
| 20260507101816 | 2 | 0.0 | 0.0 | 0.00 | 0.00 | 0.00 | 90 | 1016.1 | |
| 20260507100816 | 3 | 0.0 | 0.0 | 0.00 | 0.00 | 0.00 | 89 | 1016.1 | |
| 20260507095816 | 2 | 0.0 | 0.0 | 0.00 | 0.00 | 0.00 | 89 | 1016.1 | |
| 20260507094815 | 2 | 0.0 | 0.0 | 0.00 | 0.00 | 0.00 | 87 | 1016.2 | |
| 20260507093816 | 3 | 0.0 | 0.0 | 0.00 | 0.00 | 0.00 | 87 | 1016.3 | |
| 20260507092815 | 3 | 0.0 | 0.0 | 0.00 | 0.00 | 0.00 | 87 | 1016.3 | |
| 20260507091815 | 3 | 0.0 | 0.0 | 0.00 | 0.00 | 0.00 | 86 | 1016.3 | |
| 20260507090816 | 3 | 0.0 | 0.0 | 0.00 | 0.00 | 0.00 | 86 | 1016.3 | |
| 20260507085816 | 4 | 0.0 | 0.0 | 0.00 | 0.00 | 0.00 | 88 | 1016.4 | |
| 20260507084816 | 3 | 0.0 | 0.0 | 0.00 | 0.00 | 0.00 | 89 | 1016.3 | |
| 20260507083816 | 3 | 0.0 | 0.0 | 0.00 | 0.00 | 0.00 | 87 | 1016.3 | |
| 20260507082846 | 3 | 0.0 | 0.0 | 0.00 | 0.00 | 0.00 | 86 | 1016.4 | |
| 20260507082516 | 3 | 0.0 | 0.0 | 0.00 | 0.00 | 0.00 | 86 | 1016.4 | |
| 20260507081516 | 4 | 0.0 | 0.0 | 0.00 | 0.03 | 0.00 | 87 | 1016.3 | |
| 20260507080516 | 4 | 0.0 | 0.0 | 0.00 | 0.03 | 0.00 | 86 | 1016.3 | |
| 20260507075516 | 4 | 0.0 | 0.0 | 0.00 | 0.03 | 0.00 | 82 | 1016.3 | |
| 20260507074516 | 5 | 0.0 | 0.0 | 0.00 | 0.03 | 0.00 | 82 | 1016.3 | |
| 20260507073516 | 5 | 0.0 | 0.0 | 0.00 | 0.03 | 0.00 | 82 | 1016.6 | |
| 20260507072516 | 6 | 0.0 | 0.0 | 0.00 | 0.03 | 0.00 | 83 | 1016.7 | |
| 20260507071516 | 5 | 0.0 | 0.0 | 0.00 | 0.03 | 0.00 | 85 | 1016.8 | |
| 20260507070516 | 5 | 0.0 | 0.0 | 0.00 | 0.03 | 0.00 | 84 | 1016.7 | |
| 20260507065516 | 5 | 0.0 | 0.0 | 0.00 | 0.03 | 0.00 | 84 | 1016.8 | |
| 20260507064516 | 5 | 0.0 | 0.0 | 0.00 | 0.05 | 0.00 | 83 | 1017.0 | |
| 20260507063516 | 6 | 0.0 | 0.0 | 0.00 | 0.05 | 0.00 | 84 | 1017.0 | |
| 20260507062516 | 5 | 0.0 | 0.0 | 0.00 | 0.05 | 0.00 | 86 | 1017.0 | |
| 20260507061516 | 5 | 0.0 | 0.0 | 0.00 | 0.05 | 0.00 | 85 | 1016.9 | |
| 20260507060516 | 5 | 0.0 | 0.0 | 0.00 | 0.05 | 0.00 | 86 | 1016.9 | |
| 20260507055536 | 5 | 0.0 | 0.0 | 0.00 | 0.05 | 0.00 | 88 | 1017.0 | |
| 20260507054612 | 3 | 0.0 | 0.0 | 0.00 | 0.05 | 0.00 | 87 | 1016.9 | |
| 20260507054416 | 3 | 0.0 | 0.0 | 0.00 | 0.05 | 0.00 | 85 | 1016.9 | |
| 20260507053416 | 3 | 0.0 | 0.0 | 0.00 | 0.05 | 0.00 | 84 | 1017.0 | |
| 20260507052416 | 4 | 0.0 | 0.0 | 0.00 | 0.05 | 0.00 | 84 | 1016.9 | |
| 20260507051416 | 5 | 0.0 | 0.0 | 0.00 | 0.05 | 0.00 | 85 | 1017.1 | |
| 20260507050436 | 5 | 0.0 | 0.0 | 0.00 | 0.05 | 0.00 | 86 | 1017.0 | |
| 20260507045417 | 5 | 0.0 | 0.0 | 0.00 | 0.05 | 0.05 | 86 | 1017.0 | |
| 20260507044417 | 5 | 0.0 | 0.0 | 0.00 | 0.05 | 0.05 | 88 | 1017.0 | |
| 20260507043437 | 5 | 0.0 | 0.0 | 0.00 | 0.08 | 0.05 | 89 | 1016.9 | |
| 20260507042417 | 4 | 0.0 | 0.0 | 0.00 | 0.08 | 0.05 | 88 | 1017.0 | |
| 20260507041417 | 5 | 0.0 | 0.0 | 0.00 | 0.08 | 0.05 | 88 | 1017.3 | |
| 20260507040457 | 4 | 0.0 | 0.0 | 0.00 | 0.08 | 0.05 | 87 | 1017.2 | |
| 20260507035417 | 4 | 0.0 | 0.0 | 0.00 | 0.08 | 0.05 | 84 | 1017.2 | |
| 20260507034432 | 5 | 0.0 | 0.0 | 0.00 | 0.08 | 0.05 | 85 | 1017.1 | |
| 20260507033617 | 5 | 0.0 | 0.0 | 0.00 | 0.08 | 0.05 | 85 | 1017.1 | |
| 20260507032617 | 5 | 0.0 | 0.0 | 0.00 | 0.08 | 0.05 | 83 | 1017.1 | |
| 20260507031617 | 5 | 0.0 | 0.0 | 0.00 | 0.08 | 0.05 | 81 | 1017.1 | |
| 20260507030617 | 5 | 0.0 | 0.0 | 0.00 | 0.08 | 0.05 | 78 | 1017.1 | |
| 20260507025637 | 5 | 0.0 | 0.0 | 0.00 | 0.08 | 0.05 | 78 | 1017.0 | |
| 20260507024617 | 6 | 0.0 | 0.0 | 0.00 | 0.08 | 0.05 | 76 | 1017.0 | |
| 20260507023617 | 6 | 0.0 | 0.0 | 0.00 | 0.08 | 0.05 | 76 | 1016.9 | |
| 20260507022617 | 7 | 0.0 | 0.0 | 0.00 | 0.08 | 0.05 | 76 | 1016.9 | |
| 20260507021617 | 7 | 0.0 | 0.0 | 0.00 | 0.08 | 0.05 | 75 | 1016.9 | |
| 20260507020617 | 7 | 0.0 | 0.0 | 0.00 | 0.08 | 0.05 | 70 | 1016.8 | |
| 20260507015617 | 8 | 0.0 | 0.0 | 0.00 | 0.08 | 0.05 | 68 | 1016.7 | |
| 20260507014617 | 8 | 0.0 | 0.0 | 0.00 | 0.08 | 0.05 | 66 | 1016.6 | |
| 20260507013617 | 9 | 0.0 | 0.0 | 0.00 | 0.08 | 0.05 | 65 | 1016.5 | |
| 20260507012617 | 10 | 0.0 | 0.0 | 0.00 | 0.08 | 0.05 | 63 | 1016.5 | |
| 20260507011617 | 11 | 0.0 | 0.0 | 0.00 | 0.08 | 0.05 | 62 | 1016.3 | |
| 20260507010617 | 12 | 0.0 | 0.0 | 0.00 | 0.08 | 0.05 | 61 | 1016.3 | |
| 20260507005617 | 12 | 0.0 | 1.6 | 0.00 | 0.08 | 0.05 | 61 | 1016.4 | |
| 20260507004637 | 13 | 0.0 | 0.0 | 0.00 | 0.08 | 0.05 | 54 | 1016.3 | |
| 20260507003617 | 13 | 23 | 3.2 | 4.8 | 0.00 | 0.08 | 0.05 | 50 | 1016.2 |
| 20260507002617 | 14 | 0 | 3.2 | 4.8 | 0.00 | 0.08 | 0.05 | 49 | 1016.2 |
| 20260507001617 | 14 | 23 | 4.8 | 4.8 | 0.00 | 0.08 | 0.05 | 50 | 1016.2 |
| 20260507000617 | 14 | 23 | 4.8 | 6.4 | 0.00 | 0.08 | 0.05 | 48 | 1016.2 |
| 20260506235617 | 15 | 0 | 4.8 | 6.4 | 0.00 | 0.08 | 0.05 | 50 | 1016.3 |
| 20260506234617 | 15 | 0 | 3.2 | 4.8 | 0.00 | 0.08 | 0.05 | 46 | 1016.2 |
| 20260506233617 | 14 | 45 | 4.8 | 6.4 | 0.00 | 0.08 | 0.05 | 48 | 1016.2 |
| 20260506232617 | 15 | 23 | 4.8 | 6.4 | 0.00 | 0.08 | 0.05 | 47 | 1016.2 |
| 20260506231617 | 15 | 23 | 4.8 | 4.8 | 0.00 | 0.08 | 0.05 | 49 | 1016.2 |
| 20260506230617 | 15 | 0 | 1.6 | 3.2 | 0.00 | 0.08 | 0.05 | 48 | 1016.2 |
| 20260506225615 | 15 | 0 | 1.6 | 3.2 | 0.00 | 0.08 | 0.05 | 50 | 1016.3 |
| 20260506224615 | 15 | 23 | 4.8 | 8.0 | 0.00 | 0.08 | 0.05 | 50 | 1016.4 |
| 20260506223615 | 15 | 23 | 6.4 | 8.0 | 0.00 | 0.08 | 0.05 | 49 | 1016.3 |
| 20260506222615 | 15 | 315 | 4.8 | 6.4 | 0.00 | 0.08 | 0.05 | 47 | 1016.4 |
| 20260506221615 | 15 | 23 | 3.2 | 4.8 | 0.00 | 0.08 | 0.05 | 49 | 1016.4 |
| 20260506220615 | 15 | 0 | 3.2 | 4.8 | 0.00 | 0.08 | 0.05 | 47 | 1016.5 |
| 20260506215615 | 15 | 23 | 4.8 | 6.4 | 0.00 | 0.08 | 0.05 | 52 | 1016.6 |
| 20260506214615 | 15 | 23 | 1.6 | 3.2 | 0.00 | 0.08 | 0.05 | 49 | 1016.7 |
| 20260506213615 | 15 | 23 | 1.6 | 1.6 | 0.00 | 0.08 | 0.05 | 50 | 1016.7 |
| 20260506212706 | 15 | 338 | 1.6 | 1.6 | 0.00 | 0.08 | 0.05 | 52 | 1016.6 |
| 20260506212215 | 15 | 0 | 4.8 | 8.0 | 0.00 | 0.08 | 0.05 | 51 | 1016.8 |
| 20260506211215 | 15 | 23 | 8.0 | 14.5 | 0.00 | 0.08 | 0.05 | 52 | 1017.0 |
| 20260506210255 | 15 | 23 | 1.6 | 4.8 | 0.00 | 0.08 | 0.05 | 48 | 1017.1 |
| 20260506205235 | 15 | 23 | 4.8 | 8.0 | 0.00 | 0.08 | 0.05 | 53 | 1017.3 |
| 20260506204235 | 15 | 23 | 6.4 | 8.0 | 0.00 | 0.08 | 0.05 | 50 | 1017.3 |
| 20260506203215 | 15 | 0 | 3.2 | 8.0 | 0.00 | 0.08 | 0.05 | 47 | 1017.5 |
| 20260506202243 | 15 | 0.0 | 0.0 | 0.00 | 0.10 | 0.05 | 55 | 1017.6 | |
| 20260506201615 | 15 | 23 | 1.6 | 3.2 | 0.00 | 0.10 | 0.05 | 54 | 1017.7 |
| 20260506200615 | 15 | 0 | 6.4 | 8.0 | 0.00 | 0.10 | 0.05 | 57 | 1017.7 |
| 20260506195616 | 15 | 23 | 6.4 | 9.7 | 0.00 | 0.13 | 0.05 | 53 | 1017.8 |
| 20260506194615 | 15 | 90 | 1.6 | 4.8 | 0.00 | 0.15 | 0.05 | 51 | 1017.8 |
| 20260506193635 | 14 | 0 | 4.8 | 8.0 | 0.00 | 0.18 | 0.05 | 54 | 1017.9 |
| 20260506192616 | 15 | 45 | 3.2 | 4.8 | 0.00 | 0.23 | 0.05 | 53 | 1018.0 |
| 20260506191616 | 14 | 23 | 4.8 | 6.4 | 0.00 | 0.23 | 0.05 | 55 | 1018.0 |
| 20260506190616 | 14 | 0.0 | 1.6 | 0.00 | 0.25 | 0.05 | 53 | 1018.1 | |
| 20260506185616 | 13 | 23 | 4.8 | 8.0 | 0.00 | 0.28 | 0.05 | 53 | 1018.2 |
| 20260506184616 | 13 | 338 | 4.8 | 6.4 | 0.00 | 0.30 | 0.05 | 55 | 1018.2 |
| 20260506183615 | 13 | 23 | 3.2 | 3.2 | 0.00 | 0.36 | 0.05 | 53 | 1018.2 |
| 20260506182636 | 13 | 23 | 3.2 | 4.8 | 0.00 | 0.38 | 0.05 | 51 | 1018.2 |
| 20260506181615 | 13 | 23 | 4.8 | 6.4 | 0.00 | 0.41 | 0.05 | 55 | 1018.4 |
| 20260506180615 | 12 | 23 | 1.6 | 1.6 | 0.00 | 0.41 | 0.05 | 53 | 1018.4 |
| 20260506175616 | 12 | 23 | 4.8 | 8.0 | 0.00 | 0.41 | 0.05 | 54 | 1018.6 |
| 20260506174615 | 12 | 23 | 3.2 | 3.2 | 0.00 | 0.43 | 0.05 | 55 | 1018.7 |
| 20260506173636 | 12 | 0 | 1.6 | 3.2 | 0.00 | 0.48 | 0.05 | 54 | 1018.7 |
| 20260506172615 | 12 | 0 | 3.2 | 3.2 | 0.00 | 0.51 | 0.05 | 55 | 1018.7 |
| 20260506171615 | 13 | 23 | 4.8 | 6.4 | 0.00 | 0.56 | 0.05 | 57 | 1018.7 |
| 20260506170616 | 13 | 0 | 1.6 | 3.2 | 0.00 | 0.61 | 0.05 | 60 | 1018.5 |
| 20260506165615 | 13 | 0 | 6.4 | 8.0 | 0.00 | 0.69 | 0.05 | 61 | 1018.4 |
| 20260506164616 | 13 | 23 | 4.8 | 6.4 | 0.00 | 0.74 | 0.05 | 56 | 1018.5 |
| 20260506163636 | 13 | 23 | 4.8 | 6.4 | 0.00 | 0.79 | 0.05 | 55 | 1018.4 |
| 20260506162616 | 12 | 23 | 4.8 | 6.4 | 0.00 | 0.79 | 0.05 | 53 | 1018.3 |
| 20260506161717 | 13 | 23 | 6.4 | 6.4 | 0.00 | 0.79 | 0.05 | 58 | 1018.3 |
| 20260506161516 | 13 | 23 | 3.2 | 4.8 | 0.00 | 0.79 | 0.05 | 58 | 1018.3 |
| 20260506160516 | 13 | 0 | 4.8 | 8.0 | 0.00 | 0.81 | 0.05 | 57 | 1018.1 |